Time,TemperatureF,DewpointF,PressureIn,WindDirection,WindDirectionDegrees,WindSpeedMPH,WindSpeedGustMPH,Humidity,HourlyPrecipIn,Conditions,Clouds,dailyrainin,SoftwareType,DateUTC
2013-05-30 00:01:00,77.4,70.7,29.73,SE,129,3.0,7.0,80,0.00,,,0.00,WeatherCatV1.13B119,2013-05-30 05:01:00,
2013-05-30 00:06:00,77.3,71.0,29.73,SE,132,9.0,9.0,81,0.00,,,0.00,WeatherCatV1.13B119,2013-05-30 05:06:00,
2013-05-30 00:11:00,77.3,70.6,29.73,SE,129,7.0,10.0,80,0.00,,,0.00,WeatherCatV1.13B119,2013-05-30 05:11:00,
2013-05-30 00:16:00,77.2,70.9,29.73,SE,134,7.0,11.0,81,0.00,,,0.00,WeatherCatV1.13B119,2013-05-30 05:16:00,
2013-05-30 00:21:00,77.2,70.9,29.73,SW,225,6.0,10.0,81,0.00,,,0.00,WeatherCatV1.13B119,2013-05-30 05:21:00,
2013-05-30 00:26:00,77.1,70.8,29.73,South,170,8.0,8.0,81,0.00,,,0.00,WeatherCatV1.13B119,2013-05-30 05:26:00,
2013-05-30 00:31:00,77.1,70.8,29.73,SSE,148,4.0,11.0,81,0.00,,,0.00,WeatherCatV1.13B119,2013-05-30 05:31:00,
2013-05-30 00:36:00,77.0,70.7,29.73,SSE,164,7.0,9.0,81,0.00,,,0.00,WeatherCatV1.13B119,2013-05-30 05:36:00,
2013-05-30 00:41:00,76.9,70.6,29.73,SE,143,5.0,10.0,81,0.00,,,0.00,WeatherCatV1.13B119,2013-05-30 05:41:00,
2013-05-30 00:46:00,76.8,70.5,29.73,SE,124,4.0,7.0,81,0.00,,,0.00,WeatherCatV1.13B119,2013-05-30 05:46:00,
2013-05-30 00:51:00,76.6,70.3,29.73,SE,136,4.0,7.0,81,0.00,,,0.00,WeatherCatV1.13B119,2013-05-30 05:51:00,
2013-05-30 00:56:00,76.6,70.3,29.73,SE,129,2.0,7.0,81,0.00,,,0.00,WeatherCatV1.13B119,2013-05-30 05:56:00,
2013-05-30 01:01:00,76.5,70.6,29.73,SE,146,2.0,5.0,82,0.00,,,0.00,WeatherCatV1.13B119,2013-05-30 06:01:00,
2013-05-30 01:06:00,76.4,70.5,29.73,SE,144,3.0,9.0,82,0.00,,,0.00,WeatherCatV1.13B119,2013-05-30 06:06:00,
2013-05-30 01:11:00,76.4,70.5,29.73,South,172,3.0,7.0,82,0.00,,,0.00,WeatherCatV1.13B119,2013-05-30 06:11:00,
2013-05-30 01:16:00,76.4,70.5,29.73,SE,124,5.0,7.0,82,0.00,,,0.00,WeatherCatV1.13B119,2013-05-30 06:16:00,
2013-05-30 01:21:00,76.3,70.4,29.73,ESE,117,3.0,6.0,82,0.00,,,0.00,WeatherCatV1.13B119,2013-05-30 06:21:00,
2013-05-30 01:26:00,76.3,70.4,29.72,ENE,72,4.0,9.0,82,0.00,,,0.00,WeatherCatV1.13B119,2013-05-30 06:26:00,
2013-05-30 01:31:00,76.2,70.3,29.72,ESE,104,7.0,9.0,82,0.00,,,0.00,WeatherCatV1.13B119,2013-05-30 06:31:00,
2013-05-30 01:36:00,76.2,70.3,29.72,ESE,110,3.0,5.0,82,0.00,,,0.00,WeatherCatV1.13B119,2013-05-30 06:36:00,
2013-05-30 01:41:00,76.2,70.6,29.72,East,98,5.0,7.0,83,0.00,,,0.00,WeatherCatV1.13B119,2013-05-30 06:41:00,
2013-05-30 01:46:00,76.2,70.3,29.72,ENE,72,4.0,7.0,82,0.00,,,0.00,WeatherCatV1.13B119,2013-05-30 06:46:00,
2013-05-30 01:51:00,76.2,70.3,29.72,ESE,121,4.0,9.0,82,0.00,,,0.00,WeatherCatV1.13B119,2013-05-30 06:51:00,
2013-05-30 01:56:00,76.2,70.3,29.72,SSE,158,5.0,9.0,82,0.00,,,0.00,WeatherCatV1.13B119,2013-05-30 06:56:00,
2013-05-30 01:57:00,76.2,70.3,29.72,SE,134,3.0,9.0,82,0.00,,,0.00,WeatherCatV1.13B119,2013-05-30 06:57:00,
2013-05-30 02:02:00,76.2,70.3,29.72,ESE,114,4.0,4.0,82,0.00,,,0.00,WeatherCatV1.13B119,2013-05-30 07:02:00,
2013-05-30 02:07:00,76.2,70.3,29.72,SE,134,4.0,9.0,82,0.00,,,0.00,WeatherCatV1.13B119,2013-05-30 07:07:00,
2013-05-30 02:12:00,76.2,70.6,29.72,ESE,112,2.0,8.0,83,0.00,,,0.00,WeatherCatV1.13B119,2013-05-30 07:12:00,
2013-05-30 02:17:00,76.2,70.6,29.72,SE,139,2.0,5.0,83,0.00,,,0.00,WeatherCatV1.13B119,2013-05-30 07:17:00,
2013-05-30 02:22:00,76.2,70.6,29.72,SSE,163,7.0,7.0,83,0.00,,,0.00,WeatherCatV1.13B119,2013-05-30 07:22:00,
2013-05-30 02:27:00,76.2,70.6,29.72,SE,142,3.0,5.0,83,0.00,,,0.00,WeatherCatV1.13B119,2013-05-30 07:27:00,
2013-05-30 02:32:00,76.2,70.6,29.72,SE,141,3.0,6.0,83,0.00,,,0.00,WeatherCatV1.13B119,2013-05-30 07:32:00,
2013-05-30 02:37:00,76.2,70.6,29.72,SE,145,3.0,7.0,83,0.00,,,0.00,WeatherCatV1.13B119,2013-05-30 07:37:00,
2013-05-30 02:42:00,76.2,70.6,29.72,SE,135,5.0,7.0,83,0.00,,,0.00,WeatherCatV1.13B119,2013-05-30 07:42:00,
2013-05-30 02:47:00,76.2,70.6,29.72,ESE,118,12.0,12.0,83,0.00,,,0.00,WeatherCatV1.13B119,2013-05-30 07:47:00,
2013-05-30 02:52:00,76.2,70.6,29.71,South,169,3.0,10.0,83,0.00,,,0.00,WeatherCatV1.13B119,2013-05-30 07:52:00,
2013-05-30 02:57:00,76.1,70.5,29.71,SSE,152,7.0,7.0,83,0.00,,,0.00,WeatherCatV1.13B119,2013-05-30 07:57:00,
2013-05-30 03:02:00,76.1,70.5,29.71,SE,144,3.0,8.0,83,0.00,,,0.00,WeatherCatV1.13B119,2013-05-30 08:02:00,
2013-05-30 03:07:00,76.0,70.8,29.71,SSE,150,6.0,9.0,84,0.00,,,0.00,WeatherCatV1.13B119,2013-05-30 08:07:00,
2013-05-30 03:12:00,75.9,70.7,29.71,SE,139,3.0,9.0,84,0.00,,,0.00,WeatherCatV1.13B119,2013-05-30 08:12:00,
2013-05-30 03:17:00,75.9,70.7,29.71,SE,125,6.0,8.0,84,0.00,,,0.00,WeatherCatV1.13B119,2013-05-30 08:17:00,
2013-05-30 03:22:00,75.8,70.6,29.71,ESE,119,6.0,7.0,84,0.00,,,0.00,WeatherCatV1.13B119,2013-05-30 08:22:00,
2013-05-30 03:27:00,75.8,71.0,29.71,SSE,160,6.0,7.0,85,0.00,,,0.00,WeatherCatV1.13B119,2013-05-30 08:27:00,
2013-05-30 03:32:00,75.7,70.9,29.71,ESE,115,6.0,7.0,85,0.00,,,0.00,WeatherCatV1.13B119,2013-05-30 08:32:00,
2013-05-30 03:37:00,75.7,70.9,29.71,SE,129,5.0,9.0,85,0.00,,,0.00,WeatherCatV1.13B119,2013-05-30 08:37:00,
2013-05-30 03:42:00,75.7,70.9,29.71,SE,136,5.0,8.0,85,0.00,,,0.00,WeatherCatV1.13B119,2013-05-30 08:42:00,
2013-05-30 03:47:00,75.7,70.9,29.70,SSE,149,5.0,8.0,85,0.00,,,0.00,WeatherCatV1.13B119,2013-05-30 08:47:00,
2013-05-30 03:52:00,75.7,70.9,29.70,SE,136,5.0,7.0,85,0.00,,,0.00,WeatherCatV1.13B119,2013-05-30 08:52:00,
2013-05-30 03:57:00,75.8,71.0,29.70,SE,136,5.0,5.0,85,0.00,,,0.00,WeatherCatV1.13B119,2013-05-30 08:57:00,
2013-05-30 04:02:00,75.9,70.7,29.70,ESE,106,5.0,11.0,84,0.00,,,0.00,WeatherCatV1.13B119,2013-05-30 09:02:00,
2013-05-30 04:07:00,75.8,71.0,29.70,SE,143,4.0,7.0,85,0.00,,,0.00,WeatherCatV1.13B119,2013-05-30 09:07:00,
2013-05-30 04:12:00,75.7,70.9,29.70,ESE,122,3.0,6.0,85,0.00,,,0.00,WeatherCatV1.13B119,2013-05-30 09:12:00,
2013-05-30 04:17:00,75.7,70.9,29.71,SE,133,4.0,5.0,85,0.00,,,0.00,WeatherCatV1.13B119,2013-05-30 09:17:00,
2013-05-30 04:22:00,75.7,70.9,29.70,SE,139,6.0,7.0,85,0.00,,,0.00,WeatherCatV1.13B119,2013-05-30 09:22:00,
2013-05-30 04:27:00,75.7,70.9,29.71,SE,133,4.0,6.0,85,0.00,,,0.00,WeatherCatV1.13B119,2013-05-30 09:27:00,
2013-05-30 04:32:00,75.8,70.6,29.70,SSE,151,5.0,5.0,84,0.00,,,0.00,WeatherCatV1.13B119,2013-05-30 09:32:00,
2013-05-30 04:37:00,75.9,70.7,29.71,SSE,147,3.0,7.0,84,0.00,,,0.00,WeatherCatV1.13B119,2013-05-30 09:37:00,
2013-05-30 04:42:00,76.0,70.8,29.71,SE,140,2.0,9.0,84,0.00,,,0.00,WeatherCatV1.13B119,2013-05-30 09:42:00,
2013-05-30 04:47:00,76.0,70.8,29.70,ESE,115,5.0,8.0,84,0.00,,,0.00,WeatherCatV1.13B119,2013-05-30 09:47:00,
2013-05-30 04:52:00,76.0,70.8,29.70,ESE,120,3.0,7.0,84,0.00,,,0.00,WeatherCatV1.13B119,2013-05-30 09:52:00,
2013-05-30 04:57:00,75.9,70.7,29.70,SE,136,9.0,9.0,84,0.00,,,0.00,WeatherCatV1.13B119,2013-05-30 09:57:00,
2013-05-30 05:02:00,75.9,70.7,29.71,East,100,3.0,6.0,84,0.00,,,0.00,WeatherCatV1.13B119,2013-05-30 10:02:00,
2013-05-30 05:07:00,75.9,70.7,29.70,NNW,332,1.0,10.0,84,0.00,,,0.00,WeatherCatV1.13B119,2013-05-30 10:07:00,
2013-05-30 05:12:00,75.9,70.7,29.71,ESE,106,6.0,7.0,84,0.00,,,0.00,WeatherCatV1.13B119,2013-05-30 10:12:00,
2013-05-30 05:17:00,76.0,70.8,29.71,SE,143,5.0,7.0,84,0.00,,,0.00,WeatherCatV1.13B119,2013-05-30 10:17:00,
2013-05-30 05:22:00,75.9,70.7,29.71,ESE,119,4.0,8.0,84,0.00,,,0.00,WeatherCatV1.13B119,2013-05-30 10:22:00,
2013-05-30 05:27:00,76.0,70.8,29.71,SE,134,4.0,8.0,84,0.00,,,0.00,WeatherCatV1.13B119,2013-05-30 10:27:00,
2013-05-30 05:32:00,76.0,70.8,29.71,SE,139,5.0,5.0,84,0.00,,,0.00,WeatherCatV1.13B119,2013-05-30 10:32:00,
2013-05-30 05:37:00,75.9,70.7,29.71,SE,130,4.0,6.0,84,0.00,,,0.00,WeatherCatV1.13B119,2013-05-30 10:37:00,
2013-05-30 05:42:00,75.9,70.7,29.71,SE,146,3.0,7.0,84,0.00,,,0.00,WeatherCatV1.13B119,2013-05-30 10:42:00,
2013-05-30 05:47:00,76.0,70.8,29.71,SE,129,6.0,10.0,84,0.00,,,0.00,WeatherCatV1.13B119,2013-05-30 10:47:00,
2013-05-30 05:52:00,76.2,70.6,29.72,ESE,113,5.0,6.0,83,0.00,,,0.00,WeatherCatV1.13B119,2013-05-30 10:52:00,
2013-05-30 05:57:00,76.2,70.6,29.72,SE,136,3.0,9.0,83,0.00,,,0.00,WeatherCatV1.13B119,2013-05-30 10:57:00,
2013-05-30 06:02:00,76.1,70.5,29.72,East,101,6.0,7.0,83,0.00,,,0.00,WeatherCatV1.13B119,2013-05-30 11:02:00,
2013-05-30 06:07:00,76.1,70.5,29.72,SSE,148,6.0,12.0,83,0.00,,,0.00,WeatherCatV1.13B119,2013-05-30 11:07:00,
2013-05-30 06:12:00,76.1,70.5,29.73,ESE,120,6.0,9.0,83,0.00,,,0.00,WeatherCatV1.13B119,2013-05-30 11:12:00,
2013-05-30 06:17:00,76.1,70.9,29.73,SSE,156,5.0,5.0,84,0.00,,,0.00,WeatherCatV1.13B119,2013-05-30 11:17:00,
2013-05-30 06:22:00,76.0,70.8,29.73,SSE,155,3.0,5.0,84,0.00,,,0.00,WeatherCatV1.13B119,2013-05-30 11:22:00,
2013-05-30 06:27:00,76.0,70.8,29.73,South,178,1.0,5.0,84,0.00,,,0.00,WeatherCatV1.13B119,2013-05-30 11:27:00,
2013-05-30 06:32:00,76.0,70.8,29.73,ESE,106,3.0,4.0,84,0.00,,,0.00,WeatherCatV1.13B119,2013-05-30 11:32:00,
2013-05-30 06:37:00,75.9,70.7,29.74,SE,131,5.0,7.0,84,0.00,,,0.00,WeatherCatV1.13B119,2013-05-30 11:37:00,
2013-05-30 06:42:00,76.0,70.8,29.74,South,188,5.0,10.0,84,0.00,,,0.00,WeatherCatV1.13B119,2013-05-30 11:42:00,
2013-05-30 06:47:00,76.0,70.8,29.74,ESE,113,3.0,6.0,84,0.00,,,0.00,WeatherCatV1.13B119,2013-05-30 11:47:00,
2013-05-30 06:52:00,76.1,70.9,29.74,SE,135,3.0,5.0,84,0.00,,,0.00,WeatherCatV1.13B119,2013-05-30 11:52:00,
2013-05-30 06:57:00,76.1,70.9,29.74,ESE,113,2.0,7.0,84,0.00,,,0.00,WeatherCatV1.13B119,2013-05-30 11:57:00,
2013-05-30 07:02:00,76.2,71.0,29.75,ESE,123,5.0,6.0,84,0.00,,,0.00,WeatherCatV1.13B119,2013-05-30 12:02:00,
2013-05-30 07:07:00,76.2,71.0,29.75,ESE,113,4.0,4.0,84,0.00,,,0.00,WeatherCatV1.13B119,2013-05-30 12:07:00,
2013-05-30 07:12:00,76.2,71.0,29.75,ESE,119,3.0,6.0,84,0.00,,,0.00,WeatherCatV1.13B119,2013-05-30 12:12:00,
2013-05-30 07:17:00,76.2,71.3,29.75,SSW,203,2.0,6.0,85,0.00,,,0.00,WeatherCatV1.13B119,2013-05-30 12:17:00,
2013-05-30 07:22:00,76.3,71.1,29.75,ESE,114,5.0,5.0,84,0.00,,,0.00,WeatherCatV1.13B119,2013-05-30 12:22:00,
2013-05-30 07:27:00,76.3,71.1,29.75,East,101,3.0,6.0,84,0.00,,,0.00,WeatherCatV1.13B119,2013-05-30 12:27:00,
2013-05-30 07:32:00,76.4,71.2,29.75,ESE,105,3.0,5.0,84,0.00,,,0.00,WeatherCatV1.13B119,2013-05-30 12:32:00,
2013-05-30 07:37:00,76.4,71.2,29.75,SE,131,2.0,4.0,84,0.00,,,0.00,WeatherCatV1.13B119,2013-05-30 12:37:00,
2013-05-30 07:42:00,76.5,71.3,29.75,ESE,122,2.0,3.0,84,0.00,,,0.00,WeatherCatV1.13B119,2013-05-30 12:42:00,
2013-05-30 07:47:00,76.5,71.3,29.75,SE,125,1.0,4.0,84,0.00,,,0.00,WeatherCatV1.13B119,2013-05-30 12:47:00,
2013-05-30 07:52:00,76.6,71.4,29.76,South,178,1.0,4.0,84,0.00,,,0.00,WeatherCatV1.13B119,2013-05-30 12:52:00,
2013-05-30 07:57:00,76.8,71.6,29.76,ESE,110,1.0,4.0,84,0.00,,,0.00,WeatherCatV1.13B119,2013-05-30 12:57:00,
2013-05-30 08:02:00,77.0,71.4,29.76,ESE,113,6.0,7.0,83,0.00,,,0.00,WeatherCatV1.13B119,2013-05-30 13:02:00,
2013-05-30 08:07:00,77.1,71.5,29.76,SSW,207,3.0,5.0,83,0.00,,,0.00,WeatherCatV1.13B119,2013-05-30 13:07:00,
2013-05-30 08:13:00,77.2,71.3,29.76,East,94,4.0,6.0,82,0.00,,,0.00,WeatherCatV1.13B119,2013-05-30 13:13:00,
2013-05-30 08:18:00,77.4,71.5,29.76,SSE,166,2.0,9.0,82,0.00,,,0.00,WeatherCatV1.13B119,2013-05-30 13:18:00,
2013-05-30 08:23:00,77.6,71.7,29.76,ESE,120,3.0,6.0,82,0.00,,,0.00,WeatherCatV1.13B119,2013-05-30 13:23:00,
2013-05-30 08:28:00,77.9,71.6,29.77,ESE,117,2.0,6.0,81,0.00,,,0.00,WeatherCatV1.13B119,2013-05-30 13:28:00,
2013-05-30 08:33:00,77.9,71.6,29.76,SE,124,2.0,3.0,81,0.00,,,0.00,WeatherCatV1.13B119,2013-05-30 13:33:00,
2013-05-30 08:38:00,77.8,71.5,29.77,SSE,159,2.0,5.0,81,0.00,,,0.00,WeatherCatV1.13B119,2013-05-30 13:38:00,
2013-05-30 08:43:00,77.6,71.3,29.77,South,174,3.0,6.0,81,0.00,,,0.00,WeatherCatV1.13B119,2013-05-30 13:43:00,
2013-05-30 08:48:00,77.6,71.7,29.77,SSE,167,1.0,5.0,82,0.00,,,0.00,WeatherCatV1.13B119,2013-05-30 13:48:00,
2013-05-30 08:53:00,77.8,71.5,29.77,East,84,3.0,5.0,81,0.00,,,0.00,WeatherCatV1.13B119,2013-05-30 13:53:00,
2013-05-30 08:58:00,78.0,71.7,29.77,East,86,2.0,4.0,81,0.00,,,0.00,WeatherCatV1.13B119,2013-05-30 13:58:00,
2013-05-30 09:03:00,78.3,72.0,29.77,ESE,122,2.0,5.0,81,0.00,,,0.00,WeatherCatV1.13B119,2013-05-30 14:03:00,
2013-05-30 09:08:00,78.6,71.9,29.77,ESE,104,3.0,5.0,80,0.00,,,0.00,WeatherCatV1.13B119,2013-05-30 14:08:00,
2013-05-30 09:13:00,78.9,71.8,29.77,SE,131,2.0,6.0,79,0.00,,,0.00,WeatherCatV1.13B119,2013-05-30 14:13:00,
2013-05-30 09:18:00,79.5,72.0,29.77,South,180,2.0,7.0,78,0.00,,,0.00,WeatherCatV1.13B119,2013-05-30 14:18:00,
2013-05-30 09:23:00,80.0,72.1,29.77,SE,125,3.0,7.0,77,0.00,,,0.00,WeatherCatV1.13B119,2013-05-30 14:23:00,
2013-05-30 09:28:00,80.5,72.2,29.76,SE,143,1.0,5.0,76,0.00,,,0.00,WeatherCatV1.13B119,2013-05-30 14:28:00,
2013-05-30 09:33:00,81.2,72.1,29.77,SE,129,6.0,7.0,74,0.00,,,0.00,WeatherCatV1.13B119,2013-05-30 14:33:00,
2013-05-30 09:38:00,81.6,71.7,29.77,East,94,3.0,7.0,72,0.00,,,0.00,WeatherCatV1.13B119,2013-05-30 14:38:00,
2013-05-30 09:43:00,81.9,72.0,29.77,ESE,121,2.0,4.0,72,0.00,,,0.00,WeatherCatV1.13B119,2013-05-30 14:43:00,
2013-05-30 09:48:00,82.0,71.6,29.77,ESE,119,4.0,9.0,71,0.00,,,0.00,WeatherCatV1.13B119,2013-05-30 14:48:00,
2013-05-30 09:53:00,81.5,71.6,29.77,ESE,115,5.0,6.0,72,0.00,,,0.00,WeatherCatV1.13B119,2013-05-30 14:53:00,
2013-05-30 09:58:00,81.8,71.9,29.77,SW,229,2.0,6.0,72,0.00,,,0.00,WeatherCatV1.13B119,2013-05-30 14:58:00,
2013-05-30 10:03:00,82.1,72.2,29.77,WSW,239,4.0,6.0,72,0.00,,,0.00,WeatherCatV1.13B119,2013-05-30 15:03:00,
2013-05-30 10:08:00,82.1,70.9,29.77,SE,138,2.0,7.0,69,0.00,,,0.00,WeatherCatV1.13B119,2013-05-30 15:08:00,
2013-05-30 10:13:00,81.7,70.9,29.77,SE,141,4.0,7.0,70,0.00,,,0.00,WeatherCatV1.13B119,2013-05-30 15:13:00,
2013-05-30 10:18:00,81.9,71.5,29.77,SSE,167,2.0,3.0,71,0.00,,,0.00,WeatherCatV1.13B119,2013-05-30 15:18:00,
2013-05-30 10:23:00,82.0,71.2,29.77,SW,234,4.0,7.0,70,0.00,,,0.00,WeatherCatV1.13B119,2013-05-30 15:23:00,
2013-05-30 10:28:00,81.7,70.5,29.77,SW,231,4.0,6.0,69,0.00,,,0.00,WeatherCatV1.13B119,2013-05-30 15:28:00,
2013-05-30 10:33:00,81.5,70.7,29.77,SSE,157,3.0,13.0,70,0.00,,,0.00,WeatherCatV1.13B119,2013-05-30 15:33:00,
2013-05-30 10:38:00,81.4,70.7,29.77,NE,46,1.0,5.0,70,0.00,,,0.00,WeatherCatV1.13B119,2013-05-30 15:38:00,
2013-05-30 10:43:00,81.3,70.6,29.77,ESE,122,2.0,5.0,70,0.00,,,0.00,WeatherCatV1.13B119,2013-05-30 15:43:00,
2013-05-30 10:48:00,81.2,70.9,29.76,SW,236,0.0,4.0,71,0.00,,,0.00,WeatherCatV1.13B119,2013-05-30 15:48:00,
2013-05-30 10:53:00,81.0,70.7,29.77,WSW,238,3.0,6.0,71,0.00,,,0.00,WeatherCatV1.13B119,2013-05-30 15:53:00,
2013-05-30 10:58:00,81.0,71.1,29.77,SE,139,1.0,5.0,72,0.00,,,0.00,WeatherCatV1.13B119,2013-05-30 15:58:00,
2013-05-30 11:03:00,81.1,71.2,29.77,ESE,117,3.0,3.0,72,0.00,,,0.00,WeatherCatV1.13B119,2013-05-30 16:03:00,
2013-05-30 11:08:00,81.4,71.1,29.77,SE,133,2.0,7.0,71,0.00,,,0.00,WeatherCatV1.13B119,2013-05-30 16:08:00,
2013-05-30 11:13:00,82.0,71.2,29.77,SSW,211,2.0,7.0,70,0.00,,,0.00,WeatherCatV1.13B119,2013-05-30 16:13:00,
2013-05-30 11:18:00,82.3,71.1,29.77,SW,220,2.0,7.0,69,0.00,,,0.00,WeatherCatV1.13B119,2013-05-30 16:18:00,
2013-05-30 11:23:00,82.5,71.3,29.77,ESE,118,2.0,6.0,69,0.00,,,0.00,WeatherCatV1.13B119,2013-05-30 16:23:00,
2013-05-30 11:28:00,82.1,70.9,29.77,SSW,204,1.0,6.0,69,0.00,,,0.00,WeatherCatV1.13B119,2013-05-30 16:28:00,
2013-05-30 11:33:00,81.8,71.0,29.77,South,179,1.0,6.0,70,0.00,,,0.00,WeatherCatV1.13B119,2013-05-30 16:33:00,
2013-05-30 11:38:00,81.5,71.2,29.77,SE,146,1.0,4.0,71,0.00,,,0.00,WeatherCatV1.13B119,2013-05-30 16:38:00,
2013-05-30 11:43:00,81.6,71.7,29.77,SE,130,2.0,4.0,72,0.00,,,0.00,WeatherCatV1.13B119,2013-05-30 16:43:00,
2013-05-30 11:48:00,81.4,71.5,29.77,SSE,154,3.0,6.0,72,0.00,,,0.00,WeatherCatV1.13B119,2013-05-30 16:48:00,
2013-05-30 11:53:00,81.3,71.4,29.77,SSW,201,0.0,7.0,72,0.00,,,0.00,WeatherCatV1.13B119,2013-05-30 16:53:00,
2013-05-30 11:58:00,81.6,71.7,29.77,SW,221,0.0,5.0,72,0.00,,,0.00,WeatherCatV1.13B119,2013-05-30 16:58:00,
2013-05-30 12:03:00,81.9,72.0,29.77,ESE,102,2.0,6.0,72,0.00,,,0.00,WeatherCatV1.13B119,2013-05-30 17:03:00,
2013-05-30 12:08:00,82.0,71.6,29.77,ESE,119,4.0,6.0,71,0.00,,,0.00,WeatherCatV1.13B119,2013-05-30 17:08:00,
2013-05-30 12:13:00,82.0,71.6,29.77,ESE,109,2.0,6.0,71,0.00,,,0.00,WeatherCatV1.13B119,2013-05-30 17:13:00,
2013-05-30 12:18:00,82.2,71.8,29.77,SE,134,2.0,4.0,71,0.00,,,0.00,WeatherCatV1.13B119,2013-05-30 17:18:00,
2013-05-30 12:23:00,82.4,71.6,29.77,SSE,148,5.0,6.0,70,0.00,,,0.00,WeatherCatV1.13B119,2013-05-30 17:23:00,
2013-05-30 12:28:00,82.5,71.3,29.77,NW,326,2.0,9.0,69,0.00,,,0.00,WeatherCatV1.13B119,2013-05-30 17:28:00,
2013-05-30 12:33:00,82.6,71.8,29.77,SSE,150,1.0,7.0,70,0.00,,,0.00,WeatherCatV1.13B119,2013-05-30 17:33:00,
2013-05-30 12:38:00,82.7,71.9,29.77,WSW,239,4.0,5.0,70,0.00,,,0.00,WeatherCatV1.13B119,2013-05-30 17:38:00,
2013-05-30 12:43:00,82.6,71.8,29.77,East,95,2.0,6.0,70,0.00,,,0.00,WeatherCatV1.13B119,2013-05-30 17:43:00,
2013-05-30 12:48:00,82.5,72.1,29.77,ENE,73,4.0,4.0,71,0.00,,,0.00,WeatherCatV1.13B119,2013-05-30 17:48:00,
2013-05-30 12:53:00,82.5,72.5,29.77,ESE,121,1.0,2.0,72,0.00,,,0.00,WeatherCatV1.13B119,2013-05-30 17:53:00,
2013-05-30 12:58:00,83.0,73.0,29.77,South,172,2.0,5.0,72,0.00,,,0.00,WeatherCatV1.13B119,2013-05-30 17:58:00,
2013-05-30 13:03:00,83.8,72.1,29.77,SE,145,4.0,7.0,68,0.00,,,0.00,WeatherCatV1.13B119,2013-05-30 18:03:00,
2013-05-30 13:08:00,83.8,71.6,29.77,SW,233,2.0,5.0,67,0.00,,,0.00,WeatherCatV1.13B119,2013-05-30 18:08:00,
2013-05-30 13:13:00,84.4,72.2,29.76,SE,131,3.0,6.0,67,0.00,,,0.00,WeatherCatV1.13B119,2013-05-30 18:13:00,
2013-05-30 13:18:00,84.6,72.4,29.76,SE,131,2.0,5.0,67,0.00,,,0.00,WeatherCatV1.13B119,2013-05-30 18:18:00,
2013-05-30 13:23:00,84.6,72.0,29.76,SE,127,3.0,6.0,66,0.00,,,0.00,WeatherCatV1.13B119,2013-05-30 18:23:00,
2013-05-30 13:28:00,84.2,72.0,29.76,SSE,163,3.0,5.0,67,0.00,,,0.00,WeatherCatV1.13B119,2013-05-30 18:28:00,
2013-05-30 13:33:00,83.8,71.6,29.76,SSE,159,4.0,5.0,67,0.00,,,0.00,WeatherCatV1.13B119,2013-05-30 18:33:00,
2013-05-30 13:38:00,83.8,71.6,29.76,ESE,116,3.0,4.0,67,0.00,,,0.00,WeatherCatV1.13B119,2013-05-30 18:38:00,
2013-05-30 13:43:00,84.2,71.6,29.76,SSW,193,3.0,5.0,66,0.00,,,0.00,WeatherCatV1.13B119,2013-05-30 18:43:00,
2013-05-30 13:48:00,84.5,72.3,29.76,East,89,2.0,6.0,67,0.00,,,0.00,WeatherCatV1.13B119,2013-05-30 18:48:00,
2013-05-30 13:53:00,85.2,72.1,29.75,SSE,167,1.0,7.0,65,0.00,,,0.00,WeatherCatV1.13B119,2013-05-30 18:53:00,
2013-05-30 13:58:00,85.7,72.1,29.75,WSW,240,1.0,5.0,64,0.00,,,0.00,WeatherCatV1.13B119,2013-05-30 18:58:00,
2013-05-30 14:03:00,86.3,73.1,29.75,SE,145,2.0,2.0,65,0.00,,,0.00,WeatherCatV1.13B119,2013-05-30 19:03:00,
2013-05-30 14:08:00,86.8,72.7,29.75,SSW,192,3.0,5.0,63,0.00,,,0.00,WeatherCatV1.13B119,2013-05-30 19:08:00,
2013-05-30 14:13:00,87.2,72.6,29.75,SSW,212,2.0,6.0,62,0.00,,,0.00,WeatherCatV1.13B119,2013-05-30 19:13:00,
2013-05-30 14:18:00,87.3,72.7,29.74,SSE,153,5.0,6.0,62,0.00,,,0.00,WeatherCatV1.13B119,2013-05-30 19:18:00,
2013-05-30 14:23:00,87.7,72.5,29.75,SSE,150,2.0,4.0,61,0.00,,,0.00,WeatherCatV1.13B119,2013-05-30 19:23:00,
2013-05-30 14:28:00,88.4,72.2,29.74,SW,221,1.0,8.0,59,0.00,,,0.00,WeatherCatV1.13B119,2013-05-30 19:28:00,
2013-05-30 14:33:00,88.6,72.4,29.74,ESE,116,6.0,6.0,59,0.00,,,0.00,WeatherCatV1.13B119,2013-05-30 19:33:00,
2013-05-30 14:38:00,88.4,72.2,29.74,ESE,114,5.0,6.0,59,0.00,,,0.00,WeatherCatV1.13B119,2013-05-30 19:38:00,
2013-05-30 14:43:00,88.7,72.5,29.74,East,89,2.0,5.0,59,0.00,,,0.00,WeatherCatV1.13B119,2013-05-30 19:43:00,
2013-05-30 14:48:00,89.5,74.2,29.73,ESE,118,2.0,9.0,61,0.00,,,0.00,WeatherCatV1.13B119,2013-05-30 19:48:00,
2013-05-30 14:53:00,89.0,71.8,29.73,East,91,4.0,8.0,57,0.00,,,0.00,WeatherCatV1.13B119,2013-05-30 19:53:00,
2013-05-30 14:58:00,88.0,70.8,29.74,SE,130,4.0,9.0,57,0.00,,,0.00,WeatherCatV1.13B119,2013-05-30 19:58:00,
2013-05-30 15:03:00,87.2,71.1,29.74,SE,134,0.0,4.0,59,0.00,,,0.00,WeatherCatV1.13B119,2013-05-30 20:03:00,
2013-05-30 15:08:00,87.3,71.7,29.73,SSW,207,3.0,7.0,60,0.00,,,0.00,WeatherCatV1.13B119,2013-05-30 20:08:00,
2013-05-30 15:13:00,87.5,71.9,29.73,ESE,120,4.0,6.0,60,0.00,,,0.00,WeatherCatV1.13B119,2013-05-30 20:13:00,
2013-05-30 15:18:00,87.2,71.1,29.73,SE,124,4.0,6.0,59,0.00,,,0.00,WeatherCatV1.13B119,2013-05-30 20:18:00,
2013-05-30 15:23:00,87.2,71.6,29.73,ESE,105,1.0,3.0,60,0.00,,,0.00,WeatherCatV1.13B119,2013-05-30 20:23:00,
2013-05-30 15:28:00,87.5,71.9,29.73,SSW,200,0.0,3.0,60,0.00,,,0.00,WeatherCatV1.13B119,2013-05-30 20:28:00,
2013-05-30 15:33:00,87.9,71.7,29.73,WSW,247,4.0,4.0,59,0.00,,,0.00,WeatherCatV1.13B119,2013-05-30 20:33:00,
2013-05-30 15:38:00,88.1,70.9,29.73,SW,220,5.0,6.0,57,0.00,,,0.00,WeatherCatV1.13B119,2013-05-30 20:38:00,
2013-05-30 15:43:00,88.2,71.0,29.72,West,273,2.0,3.0,57,0.00,,,0.00,WeatherCatV1.13B119,2013-05-30 20:43:00,
2013-05-30 15:48:00,88.2,71.0,29.72,SW,218,5.0,6.0,57,0.00,,,0.00,WeatherCatV1.13B119,2013-05-30 20:48:00,
2013-05-30 15:53:00,88.3,71.6,29.72,West,269,3.0,5.0,58,0.00,,,0.00,WeatherCatV1.13B119,2013-05-30 20:53:00,
2013-05-30 15:58:00,88.7,71.5,29.72,SSW,193,1.0,3.0,57,0.00,,,0.00,WeatherCatV1.13B119,2013-05-30 20:58:00,
2013-05-30 16:03:00,88.8,71.6,29.72,SW,228,4.0,7.0,57,0.00,,,0.00,WeatherCatV1.13B119,2013-05-30 21:03:00,
2013-05-30 16:08:00,88.4,71.2,29.72,SW,215,3.0,4.0,57,0.00,,,0.00,WeatherCatV1.13B119,2013-05-30 21:08:00,
2013-05-30 16:13:00,88.9,71.1,29.72,SE,145,1.0,4.0,56,0.00,,,0.00,WeatherCatV1.13B119,2013-05-30 21:13:00,
2013-05-30 16:18:00,90.5,73.7,29.71,SE,125,3.0,3.0,58,0.00,,,0.00,WeatherCatV1.13B119,2013-05-30 21:18:00,
2013-05-30 16:23:00,90.9,71.4,29.71,WSW,246,1.0,5.0,53,0.00,,,0.00,WeatherCatV1.13B119,2013-05-30 21:23:00,
2013-05-30 16:28:00,90.9,71.4,29.71,ESE,121,3.0,5.0,53,0.00,,,0.00,WeatherCatV1.13B119,2013-05-30 21:28:00,
2013-05-30 16:33:00,90.1,70.6,29.71,SW,217,4.0,4.0,53,0.00,,,0.00,WeatherCatV1.13B119,2013-05-30 21:33:00,
2013-05-30 16:38:00,90.1,71.7,29.70,ESE,113,5.0,5.0,55,0.00,,,0.00,WeatherCatV1.13B119,2013-05-30 21:38:00,
2013-05-30 16:43:00,89.7,71.3,29.70,ESE,118,5.0,5.0,55,0.00,,,0.00,WeatherCatV1.13B119,2013-05-30 21:43:00,
2013-05-30 16:48:00,88.9,71.7,29.70,SSE,165,7.0,7.0,57,0.00,,,0.00,WeatherCatV1.13B119,2013-05-30 21:48:00,
2013-05-30 16:53:00,88.5,71.8,29.70,SSW,205,3.0,4.0,58,0.00,,,0.00,WeatherCatV1.13B119,2013-05-30 21:53:00,
2013-05-30 16:58:00,88.6,71.4,29.70,ESE,105,6.0,7.0,57,0.00,,,0.00,WeatherCatV1.13B119,2013-05-30 21:58:00,
2013-05-30 17:03:00,89.4,71.6,29.70,SE,136,2.0,5.0,56,0.00,,,0.00,WeatherCatV1.13B119,2013-05-30 22:03:00,
2013-05-30 17:08:00,90.3,71.4,29.70,South,183,2.0,9.0,54,0.00,,,0.00,WeatherCatV1.13B119,2013-05-30 22:08:00,
2013-05-30 17:13:00,90.7,71.7,29.70,SE,136,3.0,4.0,54,0.00,,,0.00,WeatherCatV1.13B119,2013-05-30 22:13:00,
2013-05-30 17:18:00,90.9,72.5,29.70,West,274,1.0,4.0,55,0.00,,,0.00,WeatherCatV1.13B119,2013-05-30 22:18:00,
2013-05-30 17:23:00,90.3,71.9,29.70,SE,129,3.0,5.0,55,0.00,,,0.00,WeatherCatV1.13B119,2013-05-30 22:23:00,
2013-05-30 17:28:00,89.6,71.8,29.69,SW,219,0.0,3.0,56,0.00,,,0.00,WeatherCatV1.13B119,2013-05-30 22:28:00,
2013-05-30 17:33:00,89.5,71.7,29.69,ESE,121,3.0,5.0,56,0.00,,,0.00,WeatherCatV1.13B119,2013-05-30 22:33:00,
2013-05-30 17:38:00,89.2,72.5,29.69,ESE,122,3.0,6.0,58,0.00,,,0.00,WeatherCatV1.13B119,2013-05-30 22:38:00,
2013-05-30 17:43:00,88.9,72.2,29.69,ENE,58,4.0,7.0,58,0.00,,,0.00,WeatherCatV1.13B119,2013-05-30 22:43:00,
2013-05-30 17:48:00,88.9,72.7,29.69,SSE,158,3.0,4.0,59,0.00,,,0.00,WeatherCatV1.13B119,2013-05-30 22:48:00,
2013-05-30 17:53:00,89.0,71.8,29.69,SSE,158,3.0,7.0,57,0.00,,,0.00,WeatherCatV1.13B119,2013-05-30 22:53:00,
2013-05-30 17:58:00,89.6,72.3,29.69,ESE,115,4.0,9.0,57,0.00,,,0.00,WeatherCatV1.13B119,2013-05-30 22:58:00,
2013-05-30 18:03:00,90.1,72.2,29.69,NNE,32,9.0,9.0,56,0.00,,,0.00,WeatherCatV1.13B119,2013-05-30 23:03:00,
2013-05-30 18:08:00,89.5,71.7,29.69,ESE,115,5.0,5.0,56,0.00,,,0.00,WeatherCatV1.13B119,2013-05-30 23:08:00,
2013-05-30 18:13:00,89.4,71.1,29.69,ESE,117,4.0,10.0,55,0.00,,,0.00,WeatherCatV1.13B119,2013-05-30 23:13:00,
2013-05-30 18:18:00,89.4,71.6,29.69,ENE,65,5.0,5.0,56,0.00,,,0.00,WeatherCatV1.13B119,2013-05-30 23:18:00,
2013-05-30 18:23:00,89.1,71.8,29.69,SSW,203,7.0,7.0,57,0.00,,,0.00,WeatherCatV1.13B119,2013-05-30 23:23:00,
2013-05-30 18:28:00,88.6,71.4,29.68,SE,128,2.0,7.0,57,0.00,,,0.00,WeatherCatV1.13B119,2013-05-30 23:28:00,
2013-05-30 18:33:00,89.1,72.4,29.68,ESE,105,1.0,1.0,58,0.00,,,0.00,WeatherCatV1.13B119,2013-05-30 23:33:00,
2013-05-30 18:38:00,89.5,72.2,29.68,ENE,68,4.0,4.0,57,0.00,,,0.00,WeatherCatV1.13B119,2013-05-30 23:38:00,
2013-05-30 18:43:00,89.7,71.9,29.68,SSW,201,3.0,4.0,56,0.00,,,0.00,WeatherCatV1.13B119,2013-05-30 23:43:00,
2013-05-30 18:48:00,89.7,71.9,29.68,WSW,258,4.0,4.0,56,0.00,,,0.00,WeatherCatV1.13B119,2013-05-30 23:48:00,
2013-05-30 18:53:00,89.3,71.5,29.68,SE,128,3.0,6.0,56,0.00,,,0.00,WeatherCatV1.13B119,2013-05-30 23:53:00,
2013-05-30 18:58:00,88.6,71.4,29.68,SSE,154,4.0,5.0,57,0.00,,,0.00,WeatherCatV1.13B119,2013-05-30 23:58:00,
2013-05-30 19:03:00,88.2,71.5,29.68,ESE,114,2.0,4.0,58,0.00,,,0.00,WeatherCatV1.13B119,2013-05-31 00:03:00,
2013-05-30 19:08:00,88.0,71.8,29.68,NE,56,4.0,4.0,59,0.00,,,0.00,WeatherCatV1.13B119,2013-05-31 00:08:00,
2013-05-30 19:13:00,87.8,72.1,29.68,South,174,1.0,3.0,60,0.00,,,0.00,WeatherCatV1.13B119,2013-05-31 00:13:00,
2013-05-30 19:18:00,87.6,72.0,29.69,SE,142,4.0,4.0,60,0.00,,,0.00,WeatherCatV1.13B119,2013-05-31 00:18:00,
2013-05-30 19:23:00,87.4,72.3,29.68,South,174,3.0,7.0,61,0.00,,,0.00,WeatherCatV1.13B119,2013-05-31 00:23:00,
2013-05-30 19:28:00,87.1,72.0,29.68,ESE,119,5.0,6.0,61,0.00,,,0.00,WeatherCatV1.13B119,2013-05-31 00:28:00,
2013-05-30 19:33:00,86.8,72.2,29.68,SSE,147,1.0,5.0,62,0.00,,,0.00,WeatherCatV1.13B119,2013-05-31 00:33:00,
2013-05-30 19:38:00,86.6,72.0,29.69,SE,139,1.0,5.0,62,0.00,,,0.00,WeatherCatV1.13B119,2013-05-31 00:38:00,
2013-05-30 19:43:00,86.3,72.2,29.69,ESE,121,1.0,4.0,63,0.00,,,0.00,WeatherCatV1.13B119,2013-05-31 00:43:00,
2013-05-30 19:48:00,86.1,72.5,29.69,SE,133,2.0,5.0,64,0.00,,,0.00,WeatherCatV1.13B119,2013-05-31 00:48:00,
2013-05-30 19:53:00,85.8,72.2,29.69,SSE,148,2.0,5.0,64,0.00,,,0.00,WeatherCatV1.13B119,2013-05-31 00:53:00,
2013-05-30 19:58:00,85.6,72.5,29.69,SE,138,1.0,2.0,65,0.00,,,0.00,WeatherCatV1.13B119,2013-05-31 00:58:00,
2013-05-30 20:03:00,85.5,72.4,29.69,South,172,1.0,3.0,65,0.00,,,0.00,WeatherCatV1.13B119,2013-05-31 01:03:00,
2013-05-30 20:08:00,85.3,72.6,29.69,South,172,0.0,3.0,66,0.00,,,0.00,WeatherCatV1.13B119,2013-05-31 01:08:00,
2013-05-30 20:13:00,85.0,72.3,29.70,East,91,4.0,4.0,66,0.00,,,0.00,WeatherCatV1.13B119,2013-05-31 01:13:00,
2013-05-30 20:18:00,85.0,71.9,29.69,East,89,4.0,4.0,65,0.00,,,0.00,WeatherCatV1.13B119,2013-05-31 01:18:00,
2013-05-30 20:23:00,84.9,71.8,29.69,ESE,117,4.0,5.0,65,0.00,,,0.00,WeatherCatV1.13B119,2013-05-31 01:23:00,
2013-05-30 20:28:00,84.7,72.1,29.69,ESE,121,2.0,3.0,66,0.00,,,0.00,WeatherCatV1.13B119,2013-05-31 01:28:00,
2013-05-30 20:33:00,84.5,71.9,29.70,ESE,122,0.0,2.0,66,0.00,,,0.00,WeatherCatV1.13B119,2013-05-31 01:33:00,
2013-05-30 20:38:00,84.2,72.0,29.70,SE,135,0.0,2.0,67,0.00,,,0.00,WeatherCatV1.13B119,2013-05-31 01:38:00,
2013-05-30 20:43:00,83.9,72.2,29.70,SE,131,2.0,2.0,68,0.00,,,0.00,WeatherCatV1.13B119,2013-05-31 01:43:00,
2013-05-30 20:48:00,83.9,72.2,29.70,SE,124,2.0,5.0,68,0.00,,,0.00,WeatherCatV1.13B119,2013-05-31 01:48:00,
2013-05-30 20:53:00,83.8,72.1,29.70,SE,142,0.0,5.0,68,0.00,,,0.00,WeatherCatV1.13B119,2013-05-31 01:53:00,
2013-05-30 20:58:00,83.6,72.3,29.70,SE,130,2.0,5.0,69,0.00,,,0.00,WeatherCatV1.13B119,2013-05-31 01:58:00,
2013-05-30 21:03:00,83.6,72.3,29.70,SSE,148,3.0,3.0,69,0.00,,,0.00,WeatherCatV1.13B119,2013-05-31 02:03:00,
2013-05-30 21:08:00,83.5,72.2,29.70,ESE,121,2.0,5.0,69,0.00,,,0.00,WeatherCatV1.13B119,2013-05-31 02:08:00,
2013-05-30 21:13:00,83.3,72.0,29.70,ESE,112,3.0,4.0,69,0.00,,,0.00,WeatherCatV1.13B119,2013-05-31 02:13:00,
2013-05-30 21:18:00,83.3,72.0,29.71,ESE,120,3.0,4.0,69,0.00,,,0.00,WeatherCatV1.13B119,2013-05-31 02:18:00,
2013-05-30 21:23:00,83.2,71.9,29.71,ESE,106,3.0,4.0,69,0.00,,,0.00,WeatherCatV1.13B119,2013-05-31 02:23:00,
2013-05-30 21:28:00,83.1,71.8,29.71,SE,139,5.0,7.0,69,0.00,,,0.00,WeatherCatV1.13B119,2013-05-31 02:28:00,
2013-05-30 21:33:00,83.1,71.8,29.71,SE,143,2.0,5.0,69,0.00,,,0.00,WeatherCatV1.13B119,2013-05-31 02:33:00,
2013-05-30 21:38:00,83.0,72.2,29.71,SE,145,2.0,6.0,70,0.00,,,0.00,WeatherCatV1.13B119,2013-05-31 02:38:00,
2013-05-30 21:43:00,82.9,72.1,29.72,SSE,164,4.0,7.0,70,0.00,,,0.00,WeatherCatV1.13B119,2013-05-31 02:43:00,
2013-05-30 21:48:00,82.8,72.0,29.72,SE,134,3.0,6.0,70,0.00,,,0.00,WeatherCatV1.13B119,2013-05-31 02:48:00,
2013-05-30 21:53:00,82.8,72.0,29.73,SE,135,3.0,6.0,70,0.00,,,0.00,WeatherCatV1.13B119,2013-05-31 02:53:00,
2013-05-30 21:58:00,82.7,71.9,29.73,SSE,153,2.0,4.0,70,0.00,,,0.00,WeatherCatV1.13B119,2013-05-31 02:58:00,
2013-05-30 22:03:00,82.6,72.2,29.73,ESE,122,3.0,4.0,71,0.00,,,0.00,WeatherCatV1.13B119,2013-05-31 03:03:00,
2013-05-30 22:08:00,82.3,71.9,29.73,SE,142,2.0,5.0,71,0.00,,,0.00,WeatherCatV1.13B119,2013-05-31 03:08:00,
2013-05-30 22:13:00,82.2,72.2,29.73,SE,127,3.0,6.0,72,0.00,,,0.00,WeatherCatV1.13B119,2013-05-31 03:13:00,
2013-05-30 22:18:00,82.1,72.2,29.74,East,98,4.0,4.0,72,0.00,,,0.00,WeatherCatV1.13B119,2013-05-31 03:18:00,
2013-05-30 22:23:00,82.1,72.2,29.74,SE,136,1.0,4.0,72,0.00,,,0.00,WeatherCatV1.13B119,2013-05-31 03:23:00,
2013-05-30 22:28:00,82.0,72.1,29.75,SSE,160,1.0,4.0,72,0.00,,,0.00,WeatherCatV1.13B119,2013-05-31 03:28:00,
2013-05-30 22:33:00,81.7,72.2,29.75,SSE,167,3.0,5.0,73,0.00,,,0.00,WeatherCatV1.13B119,2013-05-31 03:33:00,
2013-05-30 22:38:00,81.5,72.4,29.75,ESE,120,3.0,5.0,74,0.00,,,0.00,WeatherCatV1.13B119,2013-05-31 03:38:00,
2013-05-30 22:43:00,81.4,72.3,29.75,SSE,150,4.0,4.0,74,0.00,,,0.00,WeatherCatV1.13B119,2013-05-31 03:43:00,
2013-05-30 22:48:00,81.3,72.6,29.75,ESE,109,2.0,4.0,75,0.00,,,0.00,WeatherCatV1.13B119,2013-05-31 03:48:00,
2013-05-30 22:53:00,81.2,72.5,29.76,SSW,209,2.0,7.0,75,0.00,,,0.00,WeatherCatV1.13B119,2013-05-31 03:53:00,
2013-05-30 22:58:00,81.0,72.3,29.76,East,101,2.0,5.0,75,0.00,,,0.00,WeatherCatV1.13B119,2013-05-31 03:58:00,
2013-05-30 23:01:00,80.9,72.6,29.76,SE,135,4.0,4.0,76,0.00,,,0.00,WeatherCatV1.13B119,2013-05-31 04:01:00,
2013-05-30 23:06:00,80.8,72.5,29.76,SE,127,3.0,4.0,76,0.00,,,0.00,WeatherCatV1.13B119,2013-05-31 04:06:00,
2013-05-30 23:11:00,80.7,72.4,29.76,SSE,165,3.0,4.0,76,0.00,,,0.00,WeatherCatV1.13B119,2013-05-31 04:11:00,
2013-05-30 23:16:00,80.5,72.6,29.76,South,174,3.0,7.0,77,0.00,,,0.00,WeatherCatV1.13B119,2013-05-31 04:16:00,
2013-05-30 23:21:00,80.4,72.5,29.77,ESE,113,4.0,7.0,77,0.00,,,0.00,WeatherCatV1.13B119,2013-05-31 04:21:00,
2013-05-30 23:26:00,80.3,72.4,29.77,SE,135,4.0,6.0,77,0.00,,,0.00,WeatherCatV1.13B119,2013-05-31 04:26:00,
2013-05-30 23:31:00,80.2,72.7,29.77,SE,141,5.0,5.0,78,0.00,,,0.00,WeatherCatV1.13B119,2013-05-31 04:31:00,
2013-05-30 23:36:00,80.1,72.6,29.77,SSE,159,7.0,8.0,78,0.00,,,0.00,WeatherCatV1.13B119,2013-05-31 04:36:00,
2013-05-30 23:41:00,80.0,72.9,29.77,SE,129,3.0,6.0,79,0.00,,,0.00,WeatherCatV1.13B119,2013-05-31 04:41:00,
2013-05-30 23:46:00,79.8,72.7,29.77,SE,138,6.0,8.0,79,0.00,,,0.00,WeatherCatV1.13B119,2013-05-31 04:46:00,
2013-05-30 23:51:00,79.6,72.5,29.78,SE,128,3.0,5.0,79,0.00,,,0.00,WeatherCatV1.13B119,2013-05-31 04:51:00,
2013-05-30 23:56:00,79.5,72.8,29.77,SE,126,3.0,5.0,80,0.00,,,0.00,WeatherCatV1.13B119,2013-05-31 04:56:00,